Scottsbluff, NE

2:17 PM MST on March 01, 2017 (GMT -0700)
Heilig

Weather History for KBFF - July, 2013

Change the Weather History Date:

Tuesday, July 16, 2013

  Actual Average Record
Temperature  
Mean Temperature 73 °F 74 °F  
Max Temperature 89 °F 90 °F 108 °F (2006)
Min Temperature 56 °F 59 °F 47 °F (1917)
Degree Days  
Heating Degree Days 0 0  
Month to date heating degree days 0 1  
Since 1 June heating degree days 21 61  
Since 1 July heating degree days 0 1  
Cooling Degree Days 8 10  
Month to date cooling degree days 180 140  
Year to date cooling degree days 429 289  
Since 1 June cooling degree days 375 266  
Growing Degree Days 23 (Base 50)    
Moisture  
Dew Point 50 °F    
Average Humidity 48    
Maximum Humidity 69    
Minimum Humidity 26    
Precipitation  
Precipitation 0.00 in 0.06 in 1.50 in (1938)
Month to date precipitation 0.62 0.96  
Year to date precipitation 6.80 10.13  
Snow  
Snow 0.00 in 0.00 in - ()
Month to date snowfall 0.0 0.0  
Since 1 July snowfall 0.0 0.0  
Snow Depth 0.00 in    
Sea Level Pressure  
Sea Level Pressure 30.05 in    
Wind  
Wind Speed 10 mph (SE)    
Max Wind Speed 20 mph    
Max Gust Speed 25 mph    
Visibility 10 miles    
Events      
T = Trace of Precipitation, MM = Missing Value Source: NWS Daily Summary

Daily Weather History Graph

Daily Weather History Graph

Search for Another Location

Airport or City:

Trip Planner

Search our weather history database for the weather conditions in past years. The results will help you decide how hot, cold, wet, or windy it might be!

Date:

Astronomy

Jul. 16, 2013 Rise Set
Actual Time 5:33 AM MDT 8:26 PM MDT
Civil Twilight 5:00 AM MDT 8:59 PM MDT
Nautical Twilight 4:18 AM MDT 9:41 PM MDT
Astronomical Twilight 3:29 AM MDT 10:30 PM MDT
Moon 2:09 PM MDT (7/16) 12:07 AM MDT (7/16)
Length of Visible Light 15h 59m
Length of Day
14h 53m
First Quarter, 57% of the Moon is Illuminated
Jul 16
First Quarter
Jul 22
Full
Jul 29
Last Quarter
Aug 6
New
Aug 14
First Quarter

Hourly Weather History & Observations

Time (MDT) Temp. Heat Index Dew Point Humidity Pressure Visibility Wind Dir Wind Speed Gust Speed Precip Events Conditions
12:53 AM 64.9 °F - 46.9 °F 52% 30.03 in 10.0 mi SE 5.8 mph - N/A   Clear
1:53 AM 62.1 °F - 48.0 °F 60% 30.02 in 10.0 mi SE 5.8 mph - N/A   Clear
2:53 AM 62.1 °F - 48.9 °F 62% 30.01 in 10.0 mi Calm Calm - N/A   Clear
3:53 AM 60.1 °F - 50.0 °F 69% 30.01 in 10.0 mi Calm Calm - N/A   Clear
4:53 AM 57.9 °F - - N/A% 30.02 in 10.0 mi ESE 6.9 mph - N/A   Clear
5:53 AM 57.0 °F - - N/A% 30.04 in 10.0 mi East 5.8 mph - N/A   Clear
6:53 AM 61.0 °F - - N/A% 30.05 in 10.0 mi East 9.2 mph - N/A   Clear
7:53 AM 64.9 °F - 52.0 °F 63% 30.05 in 10.0 mi ESE 10.4 mph - N/A   Clear
8:53 AM 69.1 °F - 53.1 °F 57% 30.07 in 10.0 mi ESE 12.7 mph - N/A   Clear
9:53 AM 73.0 °F - 55.0 °F 53% 30.07 in 10.0 mi East 11.5 mph - N/A   Clear
10:53 AM 80.1 °F 80.0 °F 54.0 °F 40% 30.05 in 10.0 mi Variable 5.8 mph - N/A   Clear
11:15 AM 80.6 °F - 50.0 °F 34% 30.19 in 10.0 mi SE 12.7 mph - N/A   Clear
11:53 AM 82.0 °F - 48.9 °F 31% 30.04 in 10.0 mi SSE 9.2 mph - N/A   Clear
12:53 PM 84.0 °F - 48.9 °F 29% 30.04 in 10.0 mi SSE 12.7 mph 19.6 mph N/A   Clear
1:53 PM 86.0 °F - 48.9 °F 28% 30.04 in 10.0 mi South 12.7 mph 21.9 mph N/A   Clear
2:53 PM 87.1 °F - 50.0 °F 28% 30.04 in 10.0 mi South 15.0 mph 21.9 mph N/A   Clear
3:53 PM 88.0 °F - 48.9 °F 26% 30.03 in 10.0 mi SE 12.7 mph - N/A   Partly Cloudy
4:53 PM 87.1 °F - 48.9 °F 27% 30.03 in 10.0 mi South 12.7 mph 23.0 mph N/A   Partly Cloudy
5:53 PM 87.1 °F - 48.9 °F 27% 30.03 in 10.0 mi SE 15.0 mph 23.0 mph N/A   Partly Cloudy
6:53 PM 84.0 °F - 48.9 °F 29% 30.03 in 10.0 mi SE 13.8 mph 25.3 mph N/A   Clear
7:53 PM 80.1 °F - 50.0 °F 35% 30.05 in 10.0 mi SE 11.5 mph - N/A   Clear
8:53 PM 75.9 °F - 53.1 °F 45% 30.07 in 10.0 mi SE 12.7 mph - N/A   Clear
9:53 PM 73.9 °F - 55.0 °F 52% 30.10 in 10.0 mi SE 10.4 mph - N/A   Clear
10:53 PM 73.9 °F - 55.9 °F 53% 30.10 in 10.0 mi SSE 12.7 mph 21.9 mph N/A   Clear
11:53 PM 71.1 °F - 57.0 °F 61% 30.11 in 10.0 mi SSE 11.5 mph - N/A   Clear